Taos, NM

5:44 AM MDT on March 23, 2017 (GMT -0600)
Taos Municipal

Weather History for KSKX - May, 2013

Change the Weather History Date:

Thursday, May 2, 2013

  Actual Average Record
Temperature  
Mean Temperature 37 °F -  
Max Temperature 53 °F 64 °F 75 °F (2001)
Min Temperature 21 °F 30 °F 17 °F (2008)
Degree Days  
Heating Degree Days 28    
Moisture  
Dew Point 7 °F    
Average Humidity 30    
Maximum Humidity 54    
Minimum Humidity 14    
Precipitation  
Precipitation 0.00 in - - ()
Sea Level Pressure  
Sea Level Pressure 30.45 in    
Wind  
Wind Speed 11 mph (North)    
Max Wind Speed 23 mph    
Max Gust Speed 31 mph    
Visibility 10 miles    
Events      
Averages and records for this station are not official NWS values.
T = Trace of Precipitation, MM = Missing Value Source: NWS Daily Summary

Daily Weather History Graph

Daily Weather History Graph

Search for Another Location

Airport or City:

Trip Planner

Search our weather history database for the weather conditions in past years. The results will help you decide how hot, cold, wet, or windy it might be!

Date:

Astronomy

May. 02, 2013 Rise Set
Actual Time 6:07 AM MDT 7:51 PM MDT
Civil Twilight 5:40 AM MDT 8:19 PM MDT
Nautical Twilight 5:06 AM MDT 8:53 PM MDT
Astronomical Twilight 4:31 AM MDT 9:29 PM MDT
Moon 1:44 AM MDT (5/2) 12:56 PM MDT (5/2)
Length of Visible Light 14h 39m
Length of Day
13h 43m
Waning Gibbous, 47% of the Moon is Illuminated
May 2
Waning Gibbous
May 9
New
May 17
First Quarter
May 24
Full
May 31
Last Quarter

Hourly Weather History & Observations

Time (MDT) Temp. Windchill Dew Point Humidity Pressure Visibility Wind Dir Wind Speed Gust Speed Precip Events Conditions
12:15 AM 32.0 °F 21.2 °F 8.6 °F 38% 30.34 in 10.0 mi NNW 16.1 mph 23.0 mph N/A   Clear
12:35 AM 30.2 °F 19.3 °F 8.6 °F 40% 30.34 in 10.0 mi NNW 15.0 mph 21.9 mph N/A   Clear
12:55 AM 30.2 °F 19.8 °F 8.6 °F 40% 30.35 in 10.0 mi NNW 13.8 mph - N/A   Clear
1:15 AM 30.2 °F 19.8 °F 10.4 °F 44% 30.36 in 10.0 mi North 13.8 mph 20.7 mph N/A   Clear
1:35 AM 28.4 °F 17.0 °F 8.6 °F 43% 30.38 in 10.0 mi North 15.0 mph 23.0 mph N/A   Clear
1:55 AM 28.4 °F 18.5 °F 8.6 °F 43% 30.38 in 10.0 mi North 11.5 mph - N/A   Clear
2:15 AM 28.4 °F 18.0 °F 8.6 °F 43% 30.37 in 10.0 mi North 12.7 mph 18.4 mph N/A   Clear
2:35 AM 28.4 °F 17.5 °F 8.6 °F 43% 30.37 in 10.0 mi North 13.8 mph - N/A   Clear
2:55 AM 28.4 °F 18.0 °F 8.6 °F 43% 30.38 in 10.0 mi North 12.7 mph 18.4 mph N/A   Clear
3:15 AM 26.6 °F 16.8 °F 8.6 °F 47% 30.40 in 10.0 mi NNE 10.4 mph 20.7 mph N/A   Clear
3:35 AM 26.6 °F 19.1 °F 8.6 °F 47% 30.41 in 10.0 mi North 6.9 mph - N/A   Clear
3:55 AM 26.6 °F 17.5 °F 6.8 °F 43% 30.42 in 10.0 mi North 9.2 mph - N/A   Clear
4:15 AM 26.6 °F 16.8 °F 8.6 °F 47% 30.43 in 10.0 mi North 10.4 mph - N/A   Clear
4:35 AM 26.6 °F 19.1 °F 6.8 °F 43% 30.44 in 10.0 mi NNE 6.9 mph - N/A   Clear
4:55 AM 26.6 °F 22.6 °F 8.6 °F 47% 30.44 in 10.0 mi NNE 3.5 mph - N/A   Clear
5:15 AM 26.6 °F - 8.6 °F 47% 30.45 in 10.0 mi Calm Calm - N/A   Clear
5:35 AM 24.8 °F - 10.4 °F 54% 30.45 in 10.0 mi Calm Calm - N/A   Clear
5:55 AM 24.8 °F 19.1 °F 8.6 °F 50% 30.46 in 10.0 mi NW 4.6 mph - N/A   Clear
6:15 AM 21.2 °F 12.6 °F 6.8 °F 54% 30.47 in 10.0 mi NW 6.9 mph - N/A   Clear
6:35 AM 21.2 °F 14.9 °F 6.8 °F 54% 30.48 in 10.0 mi NW 4.6 mph - N/A   Clear
6:55 AM 24.8 °F - 8.6 °F 50% 30.49 in 10.0 mi Calm Calm - N/A   Clear
7:15 AM 26.6 °F 17.5 °F 8.6 °F 47% 30.50 in 10.0 mi North 9.2 mph - N/A   Clear
7:35 AM 28.4 °F 18.5 °F 8.6 °F 43% 30.51 in 10.0 mi North 11.5 mph 16.1 mph N/A   Clear
7:55 AM 30.2 °F 20.2 °F 8.6 °F 40% 30.52 in 10.0 mi North 12.7 mph - N/A   Clear
8:15 AM 32.0 °F 22.1 °F 8.6 °F 38% 30.52 in 10.0 mi NNE 13.8 mph - N/A   Clear
8:35 AM 33.8 °F 23.9 °F 10.4 °F 38% 30.52 in 10.0 mi North 15.0 mph - N/A   Clear
8:55 AM 35.6 °F 26.6 °F 10.4 °F 35% 30.52 in 10.0 mi North 13.8 mph - N/A   Clear
9:15 AM 37.4 °F 29.3 °F 10.4 °F 33% 30.52 in 10.0 mi NNE 12.7 mph 16.1 mph N/A   Clear
9:35 AM 39.2 °F 32.0 °F 10.4 °F 31% 30.51 in 10.0 mi NNE 11.5 mph 19.6 mph N/A   Clear
9:55 AM 41.0 °F 32.5 °F 10.4 °F 29% 30.51 in 10.0 mi North 17.3 mph 21.9 mph N/A   Clear
10:15 AM 42.8 °F 34.3 °F 10.4 °F 27% 30.51 in 10.0 mi North 19.6 mph 26.5 mph N/A   Clear
10:35 AM 42.8 °F 35.1 °F 10.4 °F 27% 30.52 in 10.0 mi North 16.1 mph 24.2 mph N/A   Clear
10:55 AM 42.8 °F 34.0 °F 10.4 °F 27% 30.52 in 10.0 mi North 20.7 mph 27.6 mph N/A   Clear
11:15 AM - - - N/A% 30.51 in 10.0 mi North 23.0 mph 31.1 mph N/A   Clear
11:35 AM 44.6 °F 36.6 °F 8.6 °F 23% 30.51 in 10.0 mi North 19.6 mph 27.6 mph N/A   Clear
11:55 AM 44.6 °F 36.1 °F 8.6 °F 23% 30.51 in 10.0 mi North 21.9 mph 27.6 mph N/A   Clear
12:15 PM 46.4 °F 39.5 °F 8.6 °F 22% 30.51 in 10.0 mi North 17.3 mph 26.5 mph N/A   Clear
12:35 PM 46.4 °F 39.8 °F 5.0 °F 18% 30.50 in 10.0 mi North 16.1 mph 24.2 mph N/A   Clear
12:55 PM 46.4 °F 39.5 °F 3.2 °F 17% 30.50 in 10.0 mi NNE 17.3 mph 24.2 mph N/A   Clear
1:15 PM 46.4 °F 42.9 °F 3.2 °F 17% 30.49 in 10.0 mi North 6.9 mph 17.3 mph N/A   Clear
1:35 PM 48.2 °F - 3.2 °F 16% 30.49 in 10.0 mi North 11.5 mph 23.0 mph N/A   Clear
1:55 PM 48.2 °F - 5.0 °F 17% 30.48 in 10.0 mi NNE 10.4 mph 24.2 mph N/A   Clear
2:15 PM 48.2 °F - 5.0 °F 17% 30.47 in 10.0 mi North 5.8 mph 24.2 mph N/A   Clear
2:35 PM 51.8 °F - 5.0 °F 15% 30.46 in 10.0 mi NNW 9.2 mph 24.2 mph N/A   Clear
2:55 PM 51.8 °F - 6.8 °F 16% 30.46 in 10.0 mi North 12.7 mph 20.7 mph N/A   Clear
3:15 PM 51.8 °F - 5.0 °F 15% 30.45 in 10.0 mi North 11.5 mph 19.6 mph N/A   Clear
3:35 PM 51.8 °F - 5.0 °F 15% 30.44 in 10.0 mi NNE 8.1 mph 19.6 mph N/A   Clear
3:55 PM 51.8 °F - 5.0 °F 15% 30.43 in 10.0 mi NW 4.6 mph - N/A   Clear
4:15 PM 51.8 °F - 6.8 °F 16% 30.43 in 10.0 mi NNW 5.8 mph 17.3 mph N/A   Clear
4:35 PM 51.8 °F - 5.0 °F 15% 30.43 in 10.0 mi Calm Calm - N/A   Clear
4:55 PM 51.8 °F - 6.8 °F 16% 30.43 in 10.0 mi Calm Calm - N/A   Clear
5:15 PM 53.6 °F - 6.8 °F 15% 30.42 in 10.0 mi WNW 6.9 mph - N/A   Clear
5:35 PM 53.6 °F - 5.0 °F 14% 30.41 in 10.0 mi SW 4.6 mph - N/A   Clear
5:55 PM 53.6 °F - 5.0 °F 14% 30.41 in 10.0 mi Calm Calm - N/A   Clear
6:15 PM 53.6 °F - 5.0 °F 14% 30.41 in 10.0 mi NNW 5.8 mph - N/A   Clear
6:35 PM 51.8 °F - 3.2 °F 14% 30.41 in 10.0 mi Calm Calm - N/A   Clear
6:55 PM 51.8 °F - 3.2 °F 14% 30.41 in 10.0 mi West 3.5 mph - N/A   Clear
7:15 PM 51.8 °F - 3.2 °F 14% 30.40 in 10.0 mi Calm Calm - N/A   Clear
7:35 PM 48.2 °F - 3.2 °F 16% 30.40 in 10.0 mi West 4.6 mph - N/A   Clear
7:55 PM 46.4 °F 45.2 °F 1.4 °F 16% 30.40 in 10.0 mi West 3.5 mph - N/A   Clear
8:15 PM 46.4 °F - 1.4 °F 16% 30.40 in 10.0 mi Calm Calm - N/A   Clear
8:35 PM 46.4 °F - 1.4 °F 16% 30.41 in 10.0 mi Calm Calm - N/A   Clear
8:55 PM 42.8 °F 37.0 °F -0.4 °F 16% 30.42 in 10.0 mi SW 10.4 mph - N/A   Clear
9:15 PM 41.0 °F 35.8 °F 3.2 °F 21% 30.42 in 10.0 mi SW 8.1 mph - N/A   Clear
9:35 PM 37.4 °F 31.4 °F 1.4 °F 22% 30.44 in 10.0 mi ESE 8.1 mph - N/A   Clear
9:55 PM 37.4 °F 30.3 °F 6.8 °F 28% 30.44 in 10.0 mi SSE 10.4 mph - N/A   Clear
10:15 PM 35.6 °F 29.9 °F 5.0 °F 28% 30.44 in 10.0 mi ESE 6.9 mph - N/A   Clear
10:35 PM 33.8 °F 27.7 °F 6.8 °F 32% 30.45 in 10.0 mi ESE 6.9 mph - N/A   Clear
10:55 PM 33.8 °F 29.6 °F 8.6 °F 35% 30.45 in 10.0 mi East 4.6 mph - N/A   Clear
11:15 PM 35.6 °F - 8.6 °F 33% 30.45 in 10.0 mi Calm Calm - N/A   Clear
11:35 PM 35.6 °F 32.8 °F 8.6 °F 33% 30.45 in 10.0 mi WNW 3.5 mph - N/A   Clear
11:55 PM 33.8 °F - 8.6 °F 35% 30.45 in 10.0 mi Calm Calm - N/A   Clear